Regional Weather Roundup
Issued by NWS

Home | Current Version | Previous Version | Graphics & Text | Print | Product List | Glossary On
Versions: 1 2 3 4 5 6 7 8 9 10 11 12 13 14 15 16 17 18 19 20 21 22 23 24 25 26 27 28 29 30 31 32 33 34 35 36 37 38 39 40 41 42 43 44 45 46 47 48 49 50
000
ASUS43 KTOP 290408
RWRKS

WEATHER ROUNDUP FOR KANSAS
NATIONAL WEATHER SERVICE GOODLAND KS
1000 PM CST SUN DEC 28 2014

NOTE:  "FAIR" INDICATES FEW OR NO CLOUDS BELOW 12,000 FEET WITH NO
SIGNIFICANT WEATHER AND/OR OBSTRUCTIONS TO VISIBILITY.

KSZ001>006-013>018-027>032-041>047-290500-
NORTHWEST KANSAS

CITY           SKY/WX    TMP DP  RH WIND       PRES   REMARKS
GOODLAND       PTCLDY    17  15  92 CALM      29.99R
HAYS           CLEAR     27  14  59 SE5       30.07R
HILL CITY      CLEAR     23  19  85 E3        30.06S
RUSSELL        PTCLDY    28  21  75 SE7       30.07R
$$

KSZ061>065-074>080-084>089-290500-
SOUTHWEST KANSAS

CITY           SKY/WX    TMP DP  RH WIND       PRES   REMARKS
DODGE CITY     CLEAR     22  16  78 E8        30.01R
ELKHART          N/A     29  17  61 SW5         N/A
GARDEN CITY    CLEAR     20  15  81 E8        29.98R
GREAT BEND     CLEAR     27  16  63 SE7       30.08S
LIBERAL        CLEAR     28  16  59 E5        29.98R
PRATT          CLEAR     28  19  69 SE6       30.08R
$$

KSZ066>073-081>083-090>101-290500-
SOUTHEAST KANSAS

CITY           SKY/WX    TMP DP  RH WIND       PRES   REMARKS
CHANUTE        CLEAR     27  20  75 SE3       30.17R
COFFEYVILLE    FAIR      26  21  81 CALM      30.17R
HUTCHINSON     CLEAR     25  17  72 SE6       30.11R
MEDICINE LODGE   N/A     29  20  69 E8        30.08R
NEWTON         CLEAR     27  14  59 E6        30.13R
PARSONS        CLEAR     23  20  88 CALM      30.18R
WICHITA INTL   CLEAR     29  17  61 E6        30.12R
WICHITA JABRA  CLEAR     26  16  65 CALM      30.13R
WICHITA MCCONL CLEAR     29  17  62 SE8       30.12S
WINFIELD       CLEAR     28  18  66 E5        30.14R
$$

KSZ007>012-019>026-033>040-048>060-102>105-290500-
NORTHEAST KANSAS

CITY           SKY/WX    TMP DP  RH WIND       PRES   REMARKS
CONCORDIA      CLOUDY    31  23  72 CALM      30.12R
EMPORIA        PTCLDY    25  18  74 S7        30.15R
LAWRENCE       MOCLDY    26  22  84 CALM      30.18S
MANHATTAN      MOCLDY    30  21  69 CALM      30.16R
MARYSVILLE     CLOUDY    32  23  69 SE5       30.14S
OLATHE IND     PTCLDY    27  20  75 SE5       30.18R
OLATHE EXE     PTCLDY    28  18  66 SE5       30.17R
SALINA         PTCLDY    28  20  71 SE8       30.12F
TOPEKA BILLARD CLOUDY    32  23  69 CALM      30.18R
TOPEKA FORBES  CLOUDY    29  21  72 CALM      30.16R
$$


USA.gov is the U.S. government's official web portal to all federal, state and local government web resources and services.